Location: Newark
(13.8625°N, 100.5144°E)
Time: 17:44:56
(UTC+00:00)

Hubble Space Telescope - Visible Passes

Search period start: 01 December 2021 00:00
Search period end: 11 December 2021 00:00
Orbit: 534 x 538 km, 28.5° (Epoch: 30 November)

Date Brightness Start Highest point End Pass type
(mag) Time Alt. Az. Time Alt. Az. Time Alt. Az.
02 Dec 2.5 22:58:14 10° NW 23:01:31 23° NNE 23:04:48 10° ENE visible
03 Dec 2.2 22:46:54 10° NW 22:50:27 28° NNE 22:54:00 10° E visible
04 Dec 1.8 22:36:27 15° NW 22:39:22 35° NNE 22:43:08 10° E visible
05 Dec 1.4 22:26:01 22° NW 22:28:16 45° NNE 22:32:12 10° E visible
06 Dec 1.0 22:15:37 35° NW 22:17:08 61° NNE 22:21:12 10° ESE visible
07 Dec 3.1 11:55:14 10° SSE 11:56:35 11° SSE 11:57:48 10° SE visible
07 Dec 0.6 22:05:13 57° NW 22:06:00 83° NNE 22:10:06 10° ESE visible
08 Dec 2.9 11:42:53 10° S 11:45:25 16° SSE 11:47:25 12° ESE visible
08 Dec 3.9 13:22:16 10° WSW 13:22:44 13° WSW 13:22:44 13° WSW visible
08 Dec 0.7 21:54:50 72° SSW 21:54:50 72° SSW 21:58:56 10° ESE visible
09 Dec 2.5 11:31:03 10° SSW 11:34:14 21° SSE 11:37:03 12° ESE visible
09 Dec 3.4 13:11:09 10° WSW 13:12:22 19° WSW 13:12:22 19° WSW visible
09 Dec 1.6 21:44:28 43° S 21:44:28 43° S 21:47:40 10° SE visible
10 Dec 2.1 11:19:26 10° SSW 11:23:04 29° SSE 11:26:39 10° E visible
10 Dec 2.9 13:00:07 10° W 13:01:59 24° W 13:01:59 24° W visible
10 Dec 2.5 21:34:06 26° SSE 21:34:06 26° SSE 21:36:18 10° SE visible
